Clearfield, PA

3:09 PM EST on January 20, 2017 (GMT -0500)
Clearfield-Lawrence

Weather History for KFIG - August, 2013

Change the Weather History Date:

Wednesday, August 14, 2013

  Actual Average (KDUJ) Record (KDUJ)
Temperature  
Mean Temperature 59 °F -  
Max Temperature 70 °F 78 °F 92 °F (1988)
Min Temperature 48 °F 59 °F 44 °F (1964)
Degree Days  
Heating Degree Days 6    
Growing Degree Days 9 (Base 50)    
Moisture  
Dew Point 49 °F    
Average Humidity 74    
Maximum Humidity 93    
Minimum Humidity 47    
Precipitation  
Precipitation 0.00 in - - ()
Sea Level Pressure  
Sea Level Pressure 30.04 in    
Wind  
Wind Speed 8 mph (WNW)    
Max Wind Speed 17 mph    
Max Gust Speed 24 mph    
Visibility 10 miles    
Events      
Averages and records for this station are not official NWS values.
T = Trace of Precipitation, MM = Missing Value Source: NWS Daily Summary

Daily Weather History Graph

Daily Weather History Graph

Search for Another Location

Airport or City:

Trip Planner

Search our weather history database for the weather conditions in past years. The results will help you decide how hot, cold, wet, or windy it might be!

Date:

Astronomy

Aug. 14, 2013 Rise Set
Actual Time 6:22 AM EDT 8:13 PM EDT
Civil Twilight 5:52 AM EDT 8:42 PM EDT
Nautical Twilight 5:16 AM EDT 9:18 PM EDT
Astronomical Twilight 4:37 AM EDT 9:57 PM EDT
Moon 2:23 PM EDT (8/14) No Moon Set
Length of Visible Light 14h 49m
Length of Day
13h 50m
First Quarter, 52% of the Moon is Illuminated
Aug 14
First Quarter
Aug 20
Full
Aug 28
Last Quarter
Sep 5
New
Sep 12
First Quarter

Hourly Weather History & Observations

Time (EDT) Temp. Dew Point Humidity Pressure Visibility Wind Dir Wind Speed Gust Speed Precip Events Conditions
12:54 AM 53.1 °F 48.0 °F 83% 29.95 in 10.0 mi West 6.9 mph - N/A   Clear
1:54 AM 51.1 °F 46.9 °F 86% 29.95 in 10.0 mi West 4.6 mph - N/A   Clear
2:54 AM 48.9 °F 46.9 °F 93% 29.96 in 10.0 mi WSW 5.8 mph - N/A   Clear
3:54 AM 48.9 °F 46.9 °F 93% 29.94 in 10.0 mi SW 3.5 mph - N/A   Partly Cloudy
4:54 AM 48.9 °F 46.9 °F 93% 29.96 in 10.0 mi WSW 5.8 mph - N/A   Clear
5:54 AM 50.0 °F 46.9 °F 89% 29.96 in 10.0 mi West 4.6 mph - N/A   Mostly Cloudy
6:54 AM 51.1 °F 48.9 °F 92% 29.98 in 10.0 mi West 5.8 mph - N/A   Mostly Cloudy
7:14 AM 51.8 °F 48.2 °F 88% 29.99 in 10.0 mi WNW 9.2 mph - N/A   Mostly Cloudy
7:54 AM 54.0 °F 48.9 °F 83% 29.99 in 10.0 mi West 8.1 mph - N/A   Scattered Clouds
8:18 AM 53.6 °F 48.2 °F 82% 30.00 in 10.0 mi West 10.4 mph - N/A   Mostly Cloudy
8:25 AM 53.6 °F 48.2 °F 82% 30.00 in 10.0 mi WNW 6.9 mph - N/A   Mostly Cloudy
8:54 AM 55.0 °F 48.9 °F 80% 30.01 in 10.0 mi WNW 11.5 mph 18.4 mph N/A   Overcast
9:54 AM 57.0 °F 50.0 °F 77% 30.02 in 10.0 mi NW 10.4 mph 17.3 mph N/A   Overcast
10:54 AM 60.1 °F 51.1 °F 72% 30.04 in 10.0 mi WNW 11.5 mph - N/A   Mostly Cloudy
11:07 AM 60.8 °F 51.8 °F 72% 30.05 in 10.0 mi WNW 12.7 mph - N/A   Overcast
11:22 AM 60.8 °F 50.0 °F 68% 30.05 in 10.0 mi WNW 12.7 mph 23.0 mph N/A   Overcast
11:36 AM 60.8 °F 50.0 °F 68% 30.05 in 10.0 mi WNW 9.2 mph 18.4 mph N/A   Overcast
11:54 AM 61.0 °F 51.1 °F 70% 30.06 in 10.0 mi NW 11.5 mph 20.7 mph N/A   Overcast
12:02 PM 62.6 °F 51.8 °F 68% 30.06 in 10.0 mi NW 9.2 mph 18.4 mph N/A   Overcast
12:30 PM 62.6 °F 51.8 °F 68% 30.06 in 10.0 mi NNW 11.5 mph - N/A   Overcast
12:54 PM 66.0 °F 51.1 °F 59% 30.05 in 10.0 mi NW 17.3 mph 23.0 mph N/A   Mostly Cloudy
1:54 PM 66.9 °F 50.0 °F 54% 30.05 in 10.0 mi Variable 5.8 mph 20.7 mph N/A   Mostly Cloudy
2:54 PM 66.0 °F 48.0 °F 52% 30.05 in 10.0 mi WNW 11.5 mph 24.2 mph N/A   Mostly Cloudy
3:54 PM 66.0 °F 46.9 °F 50% 30.05 in 10.0 mi WNW 10.4 mph 19.6 mph N/A   Mostly Cloudy
4:54 PM 70.0 °F 48.9 °F 47% 30.05 in 10.0 mi North 12.7 mph 17.3 mph N/A   Mostly Cloudy
5:54 PM 68.0 °F 46.9 °F 47% 30.07 in 10.0 mi WNW 10.4 mph - N/A   Partly Cloudy
6:54 PM 64.9 °F 46.0 °F 50% 30.07 in 10.0 mi NW 8.1 mph - N/A   Partly Cloudy
7:54 PM 62.1 °F 46.9 °F 58% 30.09 in 10.0 mi NW 8.1 mph - N/A   Clear
8:54 PM 55.9 °F 48.0 °F 75% 30.12 in 10.0 mi NNW 4.6 mph - N/A   Clear
9:54 PM 52.0 °F 48.0 °F 86% 30.14 in 10.0 mi NNW 5.8 mph - N/A   Clear
10:54 PM 51.1 °F 48.0 °F 89% 30.15 in 10.0 mi NNW 4.6 mph - N/A   Clear
11:54 PM 50.0 °F 46.9 °F 89% 30.16 in 10.0 mi NNW 3.5 mph - N/A   Clear